Zurück zum Katalog

COSMOS 2251 DEB

AktivLEO
NORAD 37312·DEBRIS·🇷🇺 Russia

Gestartet Jun 16, 1993 von Plesetsk Cosmodrome

Loading…

Nächste Überflüge (nächste 24 Stunden)

TLE

AktuellSource: Space-Track

Epoche: Sep 13, 2026, 02:28 UTC

1 37312U 93036BKC 26256.10327520  .00000888  00000-0  25165-3 0  9994
2 37312  74.0307  51.6607 0017212  89.5312 270.7819 14.46901698901311

Verfolge COSMOS 2251 DEB in Echtzeit mit AllMySat

Download on the App Store